Regional Weather Roundup
Issued by NWS State College, PA

Current Version | Previous Version | Text Only | Print | Product List | Glossary On
Versions: 1 2 3 4 5 6 7 8 9 10 11 12 13 14 15 16 17 18 19 20 21 22 23 24 25 26 27 28 29 30 31 32 33 34 35 36 37 38 39 40 41 42 43 44 45 46 47 48 49 50
000
ASUS41 KCTP 271710
RWRCTP

REGIONAL WEATHER ROUNDUP
NATIONAL WEATHER SERVICE STATE COLLEGE PA
1200 PM EST THU NOV 27 2014

Note: "fair" indicates few or no clouds below 12,000 feet with no
significant weather and/or obstructions to visibility.

* = STATION THAT DOES NOT REPORT PRECIPITATION /E.G. RAIN...SNOW...ETC/
    THUNDER OR FOG.

PAZ002>004-007>009-013>016-020>023-029>032-271800-
WESTERN PENNSYLVANIA

CITY           SKY/WX    TMP DP  RH WIND       PRES   REMARKS
ERIE           SNOW      32  29  88 SW7       30.08S VSB 1/4
MEADVILLE      LGT SNOW  31  27  85 W10       30.04S FOG
FRANKLIN*      CLOUDY    34  25  69 W5        30.04F
NEW CASTLE     FLURRIES  35  28  76 W6        30.09S
BEAVER COUNTY  NOT AVBL
BUTLER*        CLOUDY    34  30  86 W6        30.07F
PITTSBURGH INT LGT SNOW  33  30  88 W8        30.07S FOG
PITTSBURGH     CLOUDY    34  24  67 W9        30.05S
INDIANA*       CLOUDY    34  28  80 NW6G12    30.06F
LATROBE        PTSUNNY   36  28  75 W12       30.06F
WASHINGTON CO* PTSUNNY   36  25  64 W8        30.09S
$$

PAZ004>006-010>012-017>019-024>028-033>037-041-042-045-046-049>053-271800-
CENTRAL PENNSYLVANIA

CITY           SKY/WX    TMP DP  RH WIND       PRES   REMARKS
BRADFORD       CLOUDY    29  21  72 NW7       29.98F
DUBOIS         CLOUDY    31  28  89 NW6       29.98F
CLEARFIELD     LGT SNOW  32  30  92 CALM      30.00F FOG
JOHNSTOWN      CLOUDY    28  25  88 W8        29.97S
ALTOONA        CLOUDY    32  30  92 NW5       30.00F
STATE COLLEGE  LGT SNOW  32  28  86 CALM      30.01F FOG
WILLIAMSPORT   CLOUDY    34  27  75 W3        30.02F
SELINSGROVE    CLOUDY    35  27  72 NW6       30.04F
FT INDIANTOWN  CLOUDY    36  27  69 VRB3      30.03F
CAPITAL CITY   CLOUDY    37  27  67 NW9       30.05S
HARRISBURG     CLOUDY    36  27  69 NW13      30.03F
YORK           CLOUDY    36  29  75 NW5       30.03F
$$

PAZ038>040-043-044-047-048-054-055-060>062-067>071-271800-
EASTERN PENNSYLVANIA

CITY           SKY/WX    TMP DP  RH WIND       PRES   REMARKS
SCRANTON       LGT SNOW  32  25  75 NW13      29.99F
MOUNT POCONO   MIX PCPN  28  22  78 NW12G21   29.92F
ALLENTOWN      PTSUNNY   35  26  69 NW10      30.01F
QUAKERTOWN*    PTSUNNY   36  28  75 NW6       30.01F
READING        CLOUDY    37  26  64 NW7       30.02F
LANCASTER      CLOUDY    36  27  69 NW8       30.03F
COATESVILLE    CLOUDY    36  28  75 NW9       30.01F
POTTSTOWN      CLOUDY    36  28  73 NW8       30.02F
BLUE BELL      CLOUDY    37  30  75 W5        30.01S
DOYLESTOWN     CLOUDY    34  30  85 NW7       30.00F
WILLOW GROVE   NOT AVBL
NORTH PHILA    CLOUDY    39  29  67 W9        30.03F
PHILADELPHIA   PTSUNNY   39  29  67 NW10      30.03F
$$


USA.gov is the U.S. government's official web portal to all federal, state and local government web resources and services.